Regional Weather Roundup
Issued by NWS

Home | Current Version | Previous Version | Text Only | Print | Product List | Glossary Off
Versions: 1 2 3 4 5 6 7 8 9 10 11 12 13 14 15 16 17 18 19 20 21 22 23 24 25 26 27 28 29 30 31 32 33 34 35 36 37 38 39 40 41 42 43 44 45 46 47 48 49 50

000
ASUS43 KOAX 251910
RWRNE

WEATHER ROUNDUP FOR NEBRASKA
NATIONAL WEATHER SERVICE OMAHA NE
200 PM CDT SUN JUN 25 2017

NOTES: SATELLITE DATA IS BEING USED TO AUGMENT CLOUD COVER ABOVE
       12000 FEET.
       "FAIR" INDICATES FEW OR NO CLOUDS BELOW 12,000 FEET WITH NO
       SIGNIFICANT WEATHER AND/OR OBSTRUCTIONS TO VISIBILITY.

  * THESE STATIONS DO NOT REPORT WEATHER SUCH AS RAIN...SNOW OR FOG.

NEZ001>004-019>022-054>056-252000-
NEBRASKA PANHANDLE

CITY           SKY/WX    TMP DP  RH WIND       PRES   REMARKS
SCOTTSBLUFF    SUNNY     76  42  29 SE10G16   30.30F
ALLIANCE       SUNNY     74  39  28 SE12G18   30.31F
CHADRON        SUNNY     77  39  25 VRB5      30.27F
GORDON         MOCLDY    73  40  29 W10G16    30.30F
KIMBALL        MOSUNNY   68  49  51 S9G17     30.36F
SIDNEY         SUNNY     70  45  40 S14G22    30.35F
$$

NEZ057>060-069>072-079>082-252000-
SOUTHWEST NEBRASKA

CITY           SKY/WX    TMP DP  RH WIND       PRES   REMARKS
NORTH PLATTE   SUNNY     73  41  31 VRB3      30.31F
IMPERIAL       LGT RAIN  61  50  67 SE12G22   30.33F
LEXINGTON      SUNNY     73  37  27 S7        30.33F
MCCOOK         MOSUNNY   72  44  36 SE13      30.32F
OGALLALA       MOSUNNY   78  42  27 SE9G18    30.31F
$$

NEZ005>010-023>029-035>040-094-252000-
NORTH CENTRAL NEBRASKA

CITY           SKY/WX    TMP DP  RH WIND       PRES   REMARKS
VALENTINE      SUNNY     76  28  17 VRB3      30.29F
AINSWORTH      SUNNY     72  38  29 SW5       30.31F
BROKEN BOW     SUNNY     73  38  27 SE5       30.31F
O`NEILL        SUNNY     72  36  27 N5        30.31F
ORD            SUNNY     73  30  20 VRB3      30.30F
THEDFORD       SUNNY     75  36  24 SW8       30.32F
$$

NEZ041-046>049-061>064-073>077-083>087-252000-
SOUTH CENTRAL NEBRASKA

CITY           SKY/WX    TMP DP  RH WIND       PRES   REMARKS
GRAND ISLAND   SUNNY     74  40  29 N3        30.32F
AURORA         SUNNY     72  37  28 CALM      30.31F
HASTINGS       SUNNY     72  42  34 VRB6      30.34F
HEBRON         CLOUDY    70  40  34 CALM      30.32F
HOLDREGE       MOSUNNY   67  42  40 SE9       30.34S
KEARNEY *      SUNNY     73  39  29 S8        30.33F
YORK           SUNNY     73  39  29 N8        30.31F
$$

NEZ011>018-030>034-042>045-252000-
NORTHEAST NEBRASKA

CITY           SKY/WX    TMP DP  RH WIND       PRES   REMARKS
NORFOLK        SUNNY     71  41  33 MISG      30.29F
ALBION         SUNNY     74  34  23 N10G17    30.30F
BLAIR          SUNNY     70  43  37 NW13      30.28F
FREMONT        SUNNY     71  42  34 N7G18     30.29F
TEKAMAH        SUNNY     73  40  30 N12G17    30.27F
WAYNE          SUNNY     72  38  28 N13       30.28F
$$

NEZ050>053-065>068-078-088>093-252000-
SOUTHEAST NEBRASKA

CITY           SKY/WX    TMP DP  RH WIND       PRES   REMARKS
LINCOLN        SUNNY     74  42  31 VRB6      30.30F
OMAHA EPPLEY   MOSUNNY   73  41  31 NW16G25   30.28F
BEATRICE       MOSUNNY   73  44  35 N6        30.30F
FALLS CITY     CLOUDY    71  46  40 NW7       30.29F
NEBRASKA CITY  SUNNY     72  46  38 NW12G17   30.30F
PLATTSMOUTH    SUNNY     71  42  34 NW9G16    30.30S
$$

NEZ044-045-051>053-067-252000-
OMAHA AREA

CITY           SKY/WX    TMP DP  RH WIND       PRES   REMARKS
OMAHA EPPLEY   MOSUNNY   73  41  31 NW16G25   30.28F
BLAIR          SUNNY     70  43  37 NW13      30.28F
FREMONT        SUNNY     71  42  34 N7G18     30.29F
MILLARD        SUNNY     73  45  37 W12       30.29F
OFFUTT AFB     SUNNY     72  45  37 W7        30.28F
PLATTSMOUTH    SUNNY     71  42  34 NW9G16    30.30S
WAHOO          FAIR      73  37  27 NW8G16    30.29F
$$




USA.gov is the U.S. government's official web portal to all federal, state and local government web resources and services.